TimeMST,TemperatureF,Dew PointF,Humidity,Sea Level PressureIn,VisibilityMPH,Wind Direction,Wind SpeedMPH,Gust SpeedMPH,PrecipitationIn,Events,Conditions,WindDirDegrees,DateUTC
12:53 AM,28.9,24.1,82,30.19,10.0,Calm,Calm,-,N/A,,Overcast,0,2014-01-26 07:53:00
1:53 AM,30.0,24.1,79,30.15,10.0,Calm,Calm,-,N/A,,Overcast,0,2014-01-26 08:53:00
2:53 AM,30.0,24.1,79,30.12,10.0,Calm,Calm,-,N/A,,Overcast,0,2014-01-26 09:53:00
3:53 AM,35.1,19.9,54,30.09,10.0,East,5.8,-,N/A,,Mostly Cloudy,90,2014-01-26 10:53:00
4:53 AM,32.0,19.9,61,30.12,10.0,Calm,Calm,-,N/A,,Scattered Clouds,0,2014-01-26 11:53:00
5:53 AM,32.0,19.9,61,30.11,10.0,East,4.6,-,N/A,,Clear,90,2014-01-26 12:53:00
6:53 AM,34.0,19.9,56,30.15,10.0,Calm,Calm,-,N/A,,Overcast,0,2014-01-26 13:53:00
7:53 AM,35.1,28.0,76,30.22,10.0,North,11.5,-,N/A,,Overcast,360,2014-01-26 14:53:00
8:35 AM,33.8,30.2,87,30.14,4.0,WNW,10.4,-,0.00,Snow,Light Snow,300,2014-01-26 15:35:00
8:53 AM,35.1,30.9,85,30.27,4.0,NW,13.8,19.6,0.01,Snow,Light Snow,320,2014-01-26 15:53:00
9:17 AM,35.6,30.2,81,30.17,5.0,North,15.0,21.9,0.00,Snow,Light Snow,360,2014-01-26 16:17:00
9:53 AM,34.0,30.0,85,30.31,8.0,WNW,10.4,-,0.00,Snow,Light Snow,300,2014-01-26 16:53:00
10:23 AM,33.8,28.4,81,30.20,7.0,NW,10.4,-,0.00,Snow,Light Snow,320,2014-01-26 17:23:00
10:51 AM,33.8,28.4,81,30.22,9.0,NW,13.8,17.3,0.00,Snow,Light Snow,310,2014-01-26 17:51:00
10:53 AM,34.0,28.9,82,30.36,9.0,NW,11.5,-,0.00,,Overcast,320,2014-01-26 17:53:00
11:53 AM,28.9,23.0,78,30.43,10.0,NNW,24.2,32.2,N/A,,Overcast,340,2014-01-26 18:53:00
12:53 PM,27.0,12.9,56,30.48,10.0,NW,20.7,31.1,N/A,,Overcast,320,2014-01-26 19:53:00
1:53 PM,25.0,9.0,51,30.49,10.0,NNW,11.5,-,N/A,,Overcast,340,2014-01-26 20:53:00
2:53 PM,24.1,6.1,46,30.50,10.0,North,12.7,-,N/A,,Overcast,360,2014-01-26 21:53:00
3:53 PM,24.1,6.1,46,30.48,10.0,NNW,9.2,-,N/A,,Overcast,340,2014-01-26 22:53:00
4:53 PM,21.9,8.1,55,30.50,10.0,NNW,9.2,-,N/A,,Overcast,340,2014-01-26 23:53:00
5:53 PM,21.9,9.0,58,30.48,10.0,NNW,5.8,-,N/A,,Overcast,330,2014-01-27 00:53:00
6:53 PM,21.9,10.0,60,30.45,10.0,WNW,5.8,-,N/A,,Overcast,300,2014-01-27 01:53:00
7:53 PM,21.0,10.9,65,30.45,10.0,Calm,Calm,-,N/A,,Overcast,0,2014-01-27 02:53:00
8:53 PM,21.0,10.0,63,30.43,10.0,NNW,3.5,-,N/A,,Overcast,340,2014-01-27 03:53:00
9:53 PM,21.0,10.0,63,30.43,10.0,Calm,Calm,-,N/A,,Overcast,0,2014-01-27 04:53:00
10:53 PM,21.0,10.9,65,30.41,10.0,Calm,Calm,-,N/A,,Overcast,0,2014-01-27 05:53:00
11:53 PM,19.9,10.9,68,30.43,10.0,Calm,Calm,-,N/A,,Overcast,0,2014-01-27 06:53:00